Zurück zum Katalog

COSMOS 2251 DEB

AktivLEO
NORAD 35015·DEBRIS·🇷🇺 Russia

Gestartet Jun 16, 1993 von Plesetsk Cosmodrome

Loading…

Nächste Überflüge (nächste 24 Stunden)

TLE

AktuellSource: Space-Track

Epoche: Sep 13, 2026, 06:47 UTC

1 35015U 93036AGC 26256.28312148  .00001612  00000-0  42452-3 0  9995
2 35015  73.9450  78.2634 0073555 244.2707 291.0182 14.48310307694132

Verfolge COSMOS 2251 DEB in Echtzeit mit AllMySat

Download on the App Store